Date String (YYYY-MM-DD hh:mm:ss) UTC,Instrument flags,Ambient pressure (hPa),Sample flow (lpm),Bypass flow (lpm),Sample temperature (°C),Ambient temperature (°C),ASC tube jacket temperature (°C),LED temperature (°C),Box temperature (°C),Sample RH (%),Span deviation,Mass concentration (μg/m³),Mass concentration (μg/m³),Mass concentration (μg/m³)
DateTimeUTC,F1_M11,P_M11,Q1_M11,Q2_M11,T1_M11,T2_M11,T3_M11,T4_M11,T5_M11,U1_M11,ZSPAN_M11,X0_M11,X2_M11,X1_M11
2022-12-23 09:00:00,,0830.4,5.03,0.00,21.3,21.0,00.0,30.1,22.8,02.4,0000.0,0009.46,0005.02,0004.57
2022-12-23 09:01:00,,0830.4,4.97,0.00,21.4,21.6,00.0,30.1,23.1,02.4,0000.0,0009.41,0005.02,0004.59
2022-12-23 09:02:00,,0830.5,5.04,0.00,21.5,22.0,00.0,30.1,23.2,02.4,0000.0,0009.35,0005.03,0004.59
2022-12-23 09:03:00,,0830.5,4.94,0.00,21.5,21.0,00.0,30.2,22.9,02.4,0002.2,0008.91,0005.04,0004.60
2022-12-23 09:04:00,,0830.5,5.01,0.00,21.2,19.5,00.0,30.2,22.4,02.4,0003.5,0008.57,0005.02,0004.61
2022-12-23 09:05:00,,0830.4,5.02,0.00,21.0,18.7,00.0,30.2,22.1,02.4,0003.2,0008.36,0005.02,0004.61
2022-12-23 09:06:00,,0830.5,4.97,0.00,21.1,19.6,00.0,30.1,22.3,02.4,0002.7,0008.39,0005.02,0004.61
2022-12-23 09:07:00,,0830.4,4.99,0.00,21.2,20.6,00.0,30.0,22.6,02.4,0002.4,0008.41,0005.03,0004.60
2022-12-23 09:08:00,,0830.5,5.05,0.00,21.2,21.4,00.0,30.0,22.9,02.4,0002.4,0008.82,0005.01,0004.59
2022-12-23 09:09:00,,0830.7,4.98,0.00,21.3,21.9,00.0,30.0,23.1,02.4,0001.6,0008.81,0005.00,0004.59
2022-12-23 09:10:00,,0830.6,4.96,0.00,21.4,21.7,00.0,30.1,23.1,02.4,0001.5,0008.85,0004.99,0004.58
2022-12-23 09:11:00,,0830.5,5.02,0.00,21.3,20.4,00.0,30.1,22.6,02.4,0001.6,0008.82,0004.95,0004.54
2022-12-23 09:12:00,,0830.4,5.03,0.00,21.1,19.3,00.0,30.1,22.3,02.4,0001.6,0008.85,0004.95,0004.52
2022-12-23 09:13:00,,0830.5,4.96,0.00,21.1,19.6,00.0,30.1,22.3,02.4,0001.5,0008.88,0004.92,0004.50
2022-12-23 09:14:00,,0830.5,5.01,0.00,21.2,20.6,00.0,30.0,22.6,02.4,0001.7,0008.97,0004.87,0004.47
2022-12-23 09:15:00,,0830.4,4.99,0.00,21.3,21.3,00.0,30.0,22.9,02.4,0001.7,0009.19,0004.88,0004.45
2022-12-23 09:16:00,,0830.6,5.00,0.00,21.4,21.9,00.0,30.0,23.1,02.4,0002.6,0009.19,0004.87,0004.43
2022-12-23 09:17:00,,0830.6,4.97,0.00,21.4,21.8,00.0,30.1,23.1,02.4,0003.3,0009.08,0004.82,0004.39
2022-12-23 09:18:00,,0830.6,5.03,0.00,21.3,20.7,00.0,30.1,22.8,02.4,0003.2,0008.98,0004.77,0004.36
2022-12-23 09:19:00,,0830.4,5.01,0.00,21.2,19.6,00.0,30.1,22.5,02.4,0003.0,0008.56,0004.73,0004.33
2022-12-23 09:20:00,,0830.5,4.98,0.00,21.1,19.1,00.0,30.1,22.3,02.4,0003.3,0008.18,0004.71,0004.31
2022-12-23 09:21:00,,0830.5,5.00,0.00,21.1,20.0,00.0,30.0,22.5,02.4,0003.1,0008.06,0004.64,0004.27
2022-12-23 09:22:00,,0830.6,5.03,0.00,21.2,20.9,00.0,30.0,22.8,02.4,0003.0,0008.64,0004.59,0004.24
2022-12-23 09:23:00,,0830.5,4.97,0.00,21.3,21.6,00.0,30.0,23.0,02.4,0003.2,0009.54,0004.61,0004.22
2022-12-23 09:24:00,,0830.6,5.02,0.00,21.4,21.7,00.0,30.0,23.1,02.4,0003.4,0009.54,0004.59,0004.19
2022-12-23 09:25:00,,0830.8,4.98,0.00,21.4,21.0,00.0,30.1,22.9,02.4,0002.8,0009.46,0004.56,0004.16
2022-12-23 09:26:00,,0830.6,5.03,0.00,21.2,20.1,00.0,30.1,22.6,02.4,0002.9,0009.14,0004.54,0004.16
2022-12-23 09:27:00,,0830.7,4.98,0.00,21.2,19.8,00.0,30.1,22.5,02.4,0002.9,0009.10,0004.51,0004.13
2022-12-23 09:28:00,,0830.7,5.00,0.00,21.2,20.8,00.0,30.0,22.8,02.4,0002.8,0009.14,0004.50,0004.11
2022-12-23 09:29:00,,0830.6,5.00,0.00,21.3,21.7,00.0,30.0,23.1,02.4,0003.1,0009.34,0004.52,0004.12
2022-12-23 09:30:00,,0830.7,4.99,0.00,21.4,22.1,00.0,30.1,23.2,02.4,0003.1,0009.56,0004.52,0004.11
2022-12-23 09:31:00,,0830.8,4.99,0.00,21.4,21.2,00.0,30.1,23.0,02.4,0003.3,0009.64,0004.53,0004.12
2022-12-23 09:32:00,,0830.8,4.99,0.00,21.3,19.8,00.0,30.1,22.5,02.4,0003.6,0009.69,0004.56,0004.13
2022-12-23 09:33:00,,0830.6,5.05,0.00,21.1,19.4,00.0,30.1,22.3,02.4,0003.2,0009.02,0004.58,0004.14
2022-12-23 09:34:00,,0830.4,4.96,0.00,21.2,20.4,00.0,30.0,22.6,02.4,0001.9,0008.48,0004.54,0004.13
2022-12-23 09:35:00,,0830.5,5.05,0.00,21.3,21.3,00.0,30.0,22.9,02.4,0000.9,0008.43,0004.54,0004.14
2022-12-23 09:36:00,,0830.6,4.98,0.00,21.4,21.8,00.0,30.0,23.1,02.4,0002.3,0008.46,0004.56,0004.15
2022-12-23 09:37:00,,0830.7,5.00,0.00,21.3,20.8,00.0,30.1,22.8,02.4,0002.2,0008.42,0004.55,0004.14
2022-12-23 09:38:00,,0830.7,4.96,0.00,21.1,19.5,00.0,30.1,22.4,02.4,0001.6,0008.38,0004.53,0004.15
2022-12-23 09:39:00,,0830.7,5.02,0.00,21.0,19.5,00.0,30.0,22.3,02.4,0002.2,0008.40,0004.55,0004.17
2022-12-23 09:40:00,,0830.6,5.02,0.00,21.1,20.7,00.0,30.0,22.7,02.5,0002.6,0008.28,0004.54,0004.15
2022-12-23 09:41:00,,0830.6,4.99,0.00,21.2,21.6,00.0,30.0,22.9,02.5,0002.6,0008.12,0004.51,0004.13
2022-12-23 09:42:00,,0830.6,4.97,0.00,21.3,22.0,00.0,30.0,23.1,02.4,0002.8,0008.04,0004.48,0004.11
2022-12-23 09:43:00,,0830.6,5.03,0.00,21.4,21.3,00.0,30.1,23.0,02.4,0002.7,0008.02,0004.46,0004.10
2022-12-23 09:44:00,,0830.5,4.97,0.00,21.3,20.6,00.0,30.1,22.8,02.5,0002.9,0008.00,0004.46,0004.10
2022-12-23 09:45:00,,0830.6,5.00,0.00,21.2,20.0,00.0,30.1,22.7,02.5,0003.2,0007.65,0004.47,0004.10
2022-12-23 09:46:00,,0830.7,5.02,0.00,21.2,20.2,00.0,30.1,22.7,02.5,0003.7,0007.68,0004.49,0004.10
2022-12-23 09:47:00,,0830.6,4.96,0.00,21.3,21.1,00.0,30.0,23.0,02.4,0000.9,0007.64,0004.47,0004.09
2022-12-23 09:48:00,,0830.6,5.04,0.00,21.4,21.9,00.0,30.0,23.2,02.4,0003.4,0007.64,0004.47,0004.09
2022-12-23 09:49:00,,0830.7,4.97,0.00,21.5,22.1,00.0,30.1,23.3,02.4,0001.7,0007.61,0004.45,0004.09
2022-12-23 09:50:00,,0830.6,5.04,0.00,21.5,21.4,00.0,30.2,23.2,02.4,0000.0,0007.55,0004.43,0004.09
2022-12-23 09:51:00,,0830.5,4.95,0.00,21.4,20.7,00.0,30.2,23.0,02.4,0000.0,0007.54,0004.44,0004.09
2022-12-23 09:52:00,,0830.5,5.03,0.00,21.4,20.2,00.0,30.2,22.9,02.4,0000.0,0007.53,0004.49,0004.12
2022-12-23 09:53:00,,0830.6,5.01,0.00,21.4,20.5,00.0,30.2,22.9,02.4,0000.0,0007.57,0004.53,0004.15
2022-12-23 09:54:00,,0830.6,4.97,0.00,21.5,21.4,00.0,30.1,23.2,02.4,0000.0,0007.66,0004.56,0004.17
2022-12-23 09:55:00,,0830.6,5.05,0.00,21.6,22.1,00.0,30.1,23.4,02.4,0000.0,0008.01,0004.61,0004.19
2022-12-23 09:56:00,,0830.6,4.97,0.00,21.7,22.3,00.0,30.2,23.5,02.4,0000.0,0008.32,0004.63,0004.19
2022-12-23 09:57:00,,0830.6,5.03,0.00,21.7,21.6,00.0,30.3,23.4,02.4,0000.0,0008.36,0004.64,0004.20
2022-12-23 09:58:00,,0830.4,4.94,0.00,21.6,20.9,00.0,30.3,23.2,02.4,0000.0,0008.46,0004.68,0004.23
2022-12-23 09:59:00,,0830.4,5.02,0.00,21.5,20.3,00.0,30.3,23.0,02.4,0000.0,0008.57,0004.71,0004.25
